OpenBCM V1.07b12 (Linux)

Packet Radio Mailbox

SR1BSZ

[Szczecin_PL JO73GK]

 Login: GUEST





  
CX2SA  > KEPS     12.09.25 07:33z 312 Lines 14790 Bytes #11 (0) @ AMSAT
BID : ORB25255.1
Read: GUEST
Subj: 2Line Orbital Elements 25255.AMSAT
Path: SR1BSZ<EA2RCF<CX2SA
Sent: 250912/0024Z @:CX2SA.SAL.URY.SOAM #:55675 [Salto] FBB7.00e $:ORB25255.1
From: CX2SA@CX2SA.SAL.URY.SOAM
To  : KEPS@AMSAT


QST de W1STR

AMSAT Orbital Elements for Amateur Satellites in TLE Format
>From Orbital Analysis Office
New England Sci-Tech STEM Education Center
Natick MA September 12, 2025
To all radio amateurs


These element sets describe the orbits of various satellites
in use by the amateur radio community. For details see:
www.amsat.org/keplerian-elements-formats/

A daily update of element sets is available at:
www.amsat.org/tle/daily-bulletin.txt
or without bulletin text:
www.amsat.org/tle/dailytle.txt


AO-07
1 07530U 74089B   25254.23800240 -.00000047  00000-0 -20566-6 0  9998
2 07530 101.9981 259.5110 0011967 304.7449  66.2813 12.53691486325566
UO-11
1 14781U 84021B   25254.17976818  .00001425  00000-0  15467-3 0  9999
2 14781  97.7649 218.7577 0008718  37.0338 323.1480 14.89655384215574
AO-27
1 22825U 93061C   25254.13393530  .00000087  00000-0  50474-4 0  9992
2 22825  98.7281 316.1183 0008170 191.5256 168.5740 14.30827456667093
FO-29
1 24278U 96046B   25254.13369396 -.00000007  00000-0  25375-4 0  9990
2 24278  98.5596 135.6568 0350888 100.1471 263.9436 13.53253533435421
NOAA-15
1 25338U 98030A   25254.20741755  .00000100  00000-0  58784-4 0  9997
2 25338  98.5322 277.0716 0011459  85.8830 274.3660 14.27014799421508
GO-32
1 25397U 98043D   25253.91110953  .00000051  00000-0  42235-4 0  9992
2 25397  98.9807 235.0209 0000728 355.1628   4.9543 14.24337530411572
ISS
1 25544U 98067A   25254.12868393  .00007439  00000-0  13707-3 0  9992
2 25544  51.6330 241.1070 0004195 325.8939  34.1779 15.50232562528493
NO-44
1 26931U 01043C   25254.25181488  .00000127  00000-0  78468-4 0  9991
2 26931  67.0487 245.6401 0007035 275.4265  84.6034 14.31776139250513
SO-50
1 27607U 02058C   25252.54416652  .00001374  00000-0  18562-3 0  9996
2 27607  64.5514 276.6077 0065797 314.6314  44.9436 14.81866347222857
CO-55
1 27844U 03031E   25254.27025275  .00000252  00000-0  12854-3 0  9992
2 27844  98.6788 261.3481 0008427 276.8283  83.1937 14.24064558151978
CO-57
1 27848U 03031J   25253.98153237  .00000211  00000-0  11232-3 0  9997
2 27848  98.6817 260.9976 0008457 297.7373  62.2947 14.23389442151659
RS-22
1 27939U 03042A   25254.26489830  .00000986  00000-0  16332-3 0  9998
2 27939  98.3366  66.0395 0012546  74.8065  97.9473 14.72574607174480
CO-58
1 28895U 05043F   25254.17439958  .00001354  00000-0  22717-3 0  9993
2 28895  98.2633  39.7788 0014610  15.1124 345.0516 14.71327037 60705
CO-65
1 32785U 08021C   25254.22858706  .00003811  00000-0  27033-3 0  9993
2 32785  97.7948 226.1871 0007644 251.3410 108.6987 15.05362428943163
CO-66
1 32791U 08021J   25253.93875707  .00010802  00000-0  49032-3 0  9998
2 32791  97.7366 236.2410 0003788 161.1874 198.9501 15.20978520944676
RS-30
1 32953U 08025A   25254.24045962  .00000025  00000-0  10712-3 0  9998
2 32953  82.5072 168.9451 0018384 198.5121 161.5292 12.43168013785031
NOAA-19
1 33591U 09005A   25254.21444474  .00000094  00000-0  73765-4 0  9998
2 33591  98.9893 319.4103 0014806  99.1955 261.0892 14.13405828855076
SRMSAT
1 37841U 11058D   25254.26996580  .00000400  00000-0  73805-4 0  9992
2 37841  19.9726 307.5822 0011867  16.3489  49.5251 14.11462945718368
ZACUBE-1
1 39417U 13066B   25253.82889508  .00004800  00000-0  40851-3 0  9998
2 39417  97.7884 210.4343 0045815 100.1504 260.4890 14.97464650638866
Delfi-N3xt
1 39428U 13066N   25254.04520129  .00006705  00000-0  66356-3 0  9990
2 39428  97.8287 170.6885 0084722  53.3646 307.5324 14.89504764632984
GOMX-1
1 39430U 13066Q   25254.28824500  .00001519  00000-0  24134-3 0  9995
2 39430  97.6729 107.1778 0130277 252.3076 106.3872 14.67982995628976
LO-74
1 39440U 13066AA  25253.80667454  .00003161  00000-0  31786-3 0  9992
2 39440  97.8551 197.7846 0059636 231.2509 128.3370 14.90643859635322
AO-73
1 39444U 13066AE  25254.15938775  .00006817  00000-0  49338-3 0  9995
2 39444  97.7929 216.5421 0043598  71.9788 288.6180 15.03560710637646
DTUSAT-2
1 40030U 14033W   25254.19878885  .00005556  00000-0  35065-3 0  9993
2 40030  98.0657 230.6669 0011208 101.9421 258.3064 15.09489811610513
EO-80
1 40032U 14033Y   25254.21420051  .00006734  00000-0  42307-3 0  9992
2 40032  98.0535 230.2073 0009927  53.8781 306.3364 15.09579037610498
LILACSAT-2
1 40908U 15049K   25254.31338069  .00010481  00000-0  25542-3 0  9996
2 40908  97.5027 277.0418 0009229 170.4805 189.6618 15.41058432552654
IO-86
1 40931U 15052B   25151.18580175  .00001241  00000-0  78118-4 0  9996
2 40931   6.0006  24.0987 0012733 338.8432  21.1169 14.78805930523159
Horyu-4
1 41340U 16012D   25254.20667423  .00025111  00000-0  58128-3 0  9997
2 41340  30.9956 220.5060 0006409 305.6620  54.3430 15.41196593527223
Lapan A3
1 41603U 16040E   25254.27791066  .00002903  00000-0  10086-3 0  9993
2 41603  97.1416 255.2633 0008980 300.0935  59.9416 15.30493338512118
CAS-2T
1 41847U 16066G   25253.83582748  .00000868  00000-0  13349-3 0  9990
2 41847  98.4133 327.4698 0344149 256.2720  99.9946 14.43704480464478
CAS-4B
1 42759U 17034B   25254.08840833  .00165278  00000-0  76853-3 0  9995
2 42759  43.0003 118.6226 0023609 238.5755 121.2808 15.81710489457305
CAS-4A
1 42761U 17034D   25254.07102038  .00184541  00000-0  72414-3 0  9998
2 42761  43.0036 114.3127 0024317 244.3693 115.4667 15.85181319457339
TechnoSat
1 42829U 17042E   25254.04643598  .00002441  00000-0  18854-3 0  9996
2 42829  97.4019  58.3576 0016547 333.2578  26.7793 15.02325090444750
AO-91
1 43017U 17073E   25253.58140603  .00007642  00000-0  38191-3 0  9991
2 43017  97.5100 122.0221 0167550 208.9781 150.2068 15.06226747423201
S-Net D
1 43186U 18014G   25254.19527185  .00004302  00000-0  24923-3 0  9994
2 43186  97.5508 156.1437 0006910 261.4589  98.5859 15.12720444416528
S-Net B
1 43187U 18014H   25254.20191073  .00004485  00000-0  25981-3 0  9997
2 43187  97.5512 156.1266 0007650 255.4279 104.6103 15.12698673416524
S-Net A
1 43188U 18014J   25254.19532385  .00004283  00000-0  24810-3 0  9997
2 43188  97.5522 156.2827 0007522 256.5671 103.4722 15.12725821416526
S-Net C
1 43189U 18014K   25254.20453816  .00004603  00000-0  26650-3 0  9991
2 43189  97.5536 156.3219 0009134 248.1340 111.8919 15.12695038415075
Ten-Koh
1 43677U 18084G   25253.93936951  .00001614  00000-0  13153-3 0  9998
2 43677  98.0818  69.8968 0005838 315.5707  44.5047 15.00996709374241
PO-101
1 43678U 18084H   25254.27234372  .00001044  00000-0  92059-4 0  9995
2 43678  98.1099  74.0301 0008461 346.4492  13.6501 14.98746649374415
QO-100
1 43700U 18090A   25254.23622671  .00000141  00000-0  00000-0 0  9995
2 43700   0.0198 144.1367 0001422  62.2138 255.0043  1.00271623 24884
MinXSS-2
1 43758U 18099A   25253.97170804  .00014437  00000-0  51950-3 0  9999
2 43758  97.4927 320.4434 0011552 180.3869 179.7364 15.28646083371221
AO-95
1 43770U 18099N   25254.12244569  .00007386  00000-0  35711-3 0  9993
2 43770  97.4819 311.2263 0009135 241.0816 118.9503 15.18871972370746
SNUSat 2
1 43782U 18099AA  25254.11865882  .00005547  00000-0  29239-3 0  9997
2 43782  97.4501 307.1929 0011901 182.2261 177.8921 15.15921767370668
SnugLite
1 43784U 18099AC  25253.67089506  .00008153  00000-0  39014-3 0  9998
2 43784  97.4318 306.5206 0003843 165.9302 194.2040 15.19220939370760
ITASat 1
1 43786U 18099AE  25254.10050761  .00005435  00000-0  30186-3 0  9991
2 43786  97.4469 306.3994 0012819 238.9635 121.0339 15.14065151370604
EAGLET 1
1 43790U 18099AJ  25254.09067731  .00003701  00000-0  23262-3 0  9990
2 43790  97.4667 306.0171 0010918 222.7475 137.2906 15.09805964370173
ESEO
1 43792U 18099AL  25254.08819511  .00001376  00000-0  10668-3 0  9994
2 43792  97.4368 298.0033 0011711 200.5681 159.5075 15.02926287369868
JO-97
1 43803U 18099AX  25254.15427560  .00009773  00000-0  41909-3 0  9995
2 43803  97.4567 312.4735 0007817 167.0776 193.0663 15.22918844371003
Suomi 100
1 43804U 18099AY  25253.73620549  .00008026  00000-0  37393-3 0  9993
2 43804  97.4630 311.0687 0012312 176.6134 183.5186 15.20098596370842
ISAT
1 43879U 18111D   25253.86033488  .00019143  00000-0  58965-3 0  9994
2 43879  97.5872 170.5009 0006371 206.6915 153.4000 15.33656583367979
UWE-4
1 43880U 18111E   25253.71662013  .00015536  00000-0  55820-3 0  9991
2 43880  97.5821 168.1256 0008982 234.0389 126.0018 15.28708048367841
Sparrow
1 43881U 18111F   25253.82595506  .00020105  00000-0  59053-3 0  9996
2 43881  97.6036 173.7308 0003268 255.5759 104.5121 15.35165130368071
Prox-1
1 44339U 19036A   25254.08386751  .00009651  00000-0  11597-2 0  9994
2 44339  23.9959 166.7888 0006763  57.6601 302.4551 14.81853434331898
Taurus 1
1 44530U 19059C   25254.34862672  .00005718  00000-0  10292-2 0  9993
2 44530  98.6176  38.3120 0009731 105.9700 254.2576 14.66975682317684
Duchifat 3
1 44854U 19089C   25253.99072694  .00063338  00000-0  86732-3 0  9997
2 44854  36.9376 117.6281 0007907 326.0058  34.0195 15.56276049317529
TO-108
1 44881U 19093C   25254.24434017  .00000804  00000-0  98602-4 0  9991
2 44881  97.7858 327.9143 0012339 285.5993  74.3860 14.85781563309984
FloripaSat 1
1 44885U 19093G   25254.20755153  .00004720  00000-0  38957-3 0  9995
2 44885  97.8171 342.0454 0007877 251.2494 108.7874 14.99466496310773
RS-44
1 44909U 19096E   25254.21498337  .00000047  00000-0  13552-3 0  9996
2 44909  82.5254 165.0839 0218545  76.6626 285.8741 12.79743330266664
UPMSat 2
1 46276U 20061E   25254.00960152  .00194522  00000-0  68829-3 0  9994
2 46276  97.2303 332.5361 0003058 221.2111 138.8931 15.88555302280184
SALSAT
1 46495U 20068K   25253.95798319  .00006378  00000-0  26580-3 0  9990
2 46495  97.8702 236.4276 0010750 186.9864 173.1224 15.24046037272742
